Weather Roundup
Issued by NWS Chicago, IL

Home | Current Version | Previous Version | Graphics & Text | Print | Product List | Glossary On
Versions: 1 2 3 4 5 6 7 8 9 10 11 12 13 14 15 16 17 18 19 20 21 22 23 24 25 26 27 28 29 30 31 32 33 34 35 36 37 38 39 40 41 42 43 44 45 46 47 48 49 50
000
NZUS59 KLOT 012110
HRRLOT

CHICAGO AREA WEATHER ROUNDUP
NATIONAL WEATHER SERVICE CHICAGO/ROMEOVILLE IL
400 PM CDT MON SEP 01 2014

NOTE: "FAIR" INDICATES FEW OR NO CLOUDS BELOW 12,000 FEET WITH NO
SIGNIFICANT WEATHER AND/OR OBSTRUCTIONS TO VISIBILITY.

* THESE STATIONS ARE NOT UNDER NWS QUALITY CONTROL. THEY ALSO MAY NOT
  REPORT WEATHER SUCH AS PRECIPITATION OR FOG.

ILZ005-006-012>014-019>023-012200-
NORTHEAST ILLINOIS

CITY           SKY/WX    TMP DP  RH WIND       PRES   REMARKS
OHARE          PTSUNNY   81  63  54 W14       29.76S HX  82
MIDWAY         PTSUNNY   83  66  56 SW17      29.77R HX  85
AURORA         PTSUNNY   82  65  56 SW17      29.78S HX  84
LANSING*         N/A    N/A N/A N/A MISG        N/A
JOLIET*        MOSUNNY   81  62  52 SW10G16   29.79S HX  82
WAUKEGAN       PTSUNNY   80  64  58 SW14G25   29.73S HX  82
DUPAGE AIRPORT PTSUNNY   82  65  56 SW17G24   29.77S HX  84
WHEELING       MOSUNNY   84  64  50 SW13G21   29.76F HX  85
KANKAKEE*      SUNNY     82  68  61 SW16      29.81S HX  85
MORRIS*        SUNNY     83  68  60 SW9       29.79S HX  85
LEWIS AIRPORT* MOSUNNY   81  64  55 SW14G20   29.78F HX  82
NORTHERLY IS     N/A     82  61  48 SW16        N/A  HX  83
$$

WIZ051-052-058>065-066-070>072-012200-
SOUTHEAST WISCONSIN

CITY           SKY/WX    TMP DP  RH WIND       PRES   REMARKS
MILWAUKEE      MOSUNNY   81  63  54 W16       29.71S HX  82
KENOSHA*       MOSUNNY   81  65  58 W20G28    29.73S HX  83
RACINE*        MOSUNNY   82  63  52 W15G24    29.73S HX  83
BURLINGTON     MOSUNNY   79  64  59 W14G20    29.74R HX  80
WAUKESHA       PTSUNNY   75  63  64 SW15G23   29.73S
WEST BEND      CLOUDY    75  63  64 W12       29.71S
$$

INZ001>003-010>013-019-020-012200-
NORTHWEST INDIANA

CITY           SKY/WX    TMP DP  RH WIND       PRES   REMARKS
GARY*          PTSUNNY   84  64  51 SW14G28   29.77F HX  86
MICHIGAN CITY* NOT AVBL
RENSSELAER*    NOT AVBL
VALPARAISO     PTSUNNY   83  68  60 SW13      29.79F HX  86
$$

LMZ740>746-012200-
SOUTHERN LAKE MICHIGAN

STATION/POSITION TIME  SKY/WX   TEMP WIND        PRES    VSBY
                                AIR  DIR/SP/G
                 (UTC)          (F)  (DEG/KT/KT) (MB)    (MI)
HARRISON CRIB    2100            80  220/ 20/ 27   N/A
BURNHAM HARBOR   2100            81  220/ 11/ 17   N/A
CALUMET HARBOR   2100            83  230/  7/ 15 1006.8S
BURNS HARBOR     NOT AVBL
MICHIGAN CITY    2100            79  210/ 14/ 17   N/A
$$

ABBREVIATIONS USED IN REMARKS
   TC - TEMPERATURE IN CELSIUS
  WCI - WIND CHILL INDEX
   HX - HEAT INDEX
  VSB - VISIBILITY
$$


USA.gov is the U.S. government's official web portal to all federal, state and local government web resources and services.